Date String (YYYY-MM-DD hh:mm:ss) UTC,Instrument flags,Ambient pressure (hPa),Sample flow (lpm),Bypass flow (lpm),Sample temperature (°C),Ambient temperature (°C),ASC tube jacket temperature (°C),LED temperature (°C),Box temperature (°C),Sample RH (%),Span deviation,Mass concentration (μg/m³),Mass concentration (μg/m³),Mass concentration (μg/m³)
DateTimeUTC,F1_M11,P_M11,Q1_M11,Q2_M11,T1_M11,T2_M11,T3_M11,T4_M11,T5_M11,U1_M11,ZSPAN_M11,X0_M11,X2_M11,X1_M11
2022-08-03 23:00:00,,0827.9,5.00,0.00,29.5,28.4,00.0,38.3,31.5,27.6,0001.0,0014.22,0007.08,0006.23
2022-08-03 23:01:00,,0827.9,5.00,0.00,29.6,28.4,00.0,38.3,31.6,27.6,0000.0,0014.19,0007.04,0006.20
2022-08-03 23:02:00,,0827.9,5.01,0.00,29.6,27.9,00.0,38.3,31.4,28.1,0000.0,0014.02,0006.99,0006.19
2022-08-03 23:03:00,,0827.9,4.99,0.00,29.5,27.4,00.0,38.2,31.3,29.0,0000.0,0013.93,0006.96,0006.17
2022-08-03 23:04:00,,0828.0,5.00,0.00,29.5,27.3,00.0,38.2,31.3,28.9,0000.0,0013.60,0006.91,0006.16
2022-08-03 23:05:00,,0828.0,5.00,0.00,29.4,27.4,00.0,38.2,31.2,28.9,0000.0,0013.17,0006.90,0006.15
2022-08-03 23:06:00,,0828.0,5.00,0.00,29.4,27.5,00.0,38.2,31.2,29.5,0000.0,0012.96,0006.90,0006.14
2022-08-03 23:07:00,,0828.0,4.99,0.00,29.4,27.7,00.0,38.2,31.3,28.3,0000.0,0013.81,0006.95,0006.16
2022-08-03 23:08:00,,0828.0,5.00,0.00,29.5,28.0,00.0,38.2,31.4,27.9,0000.0,0013.62,0007.00,0006.21
2022-08-03 23:09:00,,0828.0,5.00,0.00,29.5,28.2,00.0,38.2,31.4,28.0,0000.0,0013.82,0007.06,0006.25
2022-08-03 23:10:00,,0828.0,5.00,0.00,29.5,28.3,00.0,38.2,31.5,27.8,0000.0,0014.22,0007.15,0006.30
2022-08-03 23:11:00,,0828.0,5.00,0.00,29.6,28.2,00.0,38.2,31.5,27.8,0000.0,0013.86,0007.13,0006.32
2022-08-03 23:12:00,,0828.0,5.01,0.00,29.5,27.5,00.0,38.2,31.3,27.9,0000.0,0014.47,0007.20,0006.37
2022-08-03 23:13:00,,0828.0,4.99,0.00,29.5,27.2,00.0,38.2,31.3,28.0,0000.0,0015.62,0007.27,0006.40
2022-08-03 23:14:00,,0828.0,5.01,0.00,29.5,27.2,00.0,38.2,31.3,28.1,0000.0,0016.51,0007.34,0006.43
2022-08-03 23:15:00,,0828.0,4.99,0.00,29.4,27.4,00.0,38.2,31.2,28.4,0001.9,0016.93,0007.39,0006.46
2022-08-03 23:16:00,,0828.0,5.00,0.00,29.4,27.6,00.0,38.2,31.2,28.5,0001.0,0016.85,0007.42,0006.50
2022-08-03 23:17:00,,0828.0,4.99,0.00,29.4,27.8,00.0,38.2,31.3,28.7,0000.0,0016.31,0007.42,0006.53
2022-08-03 23:18:00,,0828.0,5.00,0.00,29.4,28.0,00.0,38.2,31.4,28.8,0001.6,0015.97,0007.46,0006.56
2022-08-03 23:19:00,,0828.0,5.01,0.00,29.5,28.2,00.0,38.2,31.5,28.8,0001.7,0016.15,0007.54,0006.59
2022-08-03 23:20:00,,0828.0,5.00,0.00,29.5,28.4,00.0,38.2,31.5,28.8,0001.1,0015.96,0007.58,0006.63
2022-08-03 23:21:00,,0828.0,4.99,0.00,29.6,28.3,00.0,38.2,31.5,28.3,0001.3,0015.41,0007.60,0006.67
2022-08-03 23:22:00,,0828.0,5.00,0.00,29.5,27.6,00.0,38.2,31.3,28.1,0001.1,0015.54,0007.69,0006.72
2022-08-03 23:23:00,,0828.0,5.00,0.00,29.5,27.2,00.0,38.2,31.3,28.4,0001.3,0014.92,0007.69,0006.75
2022-08-03 23:24:00,,0828.0,5.00,0.00,29.5,27.2,00.0,38.2,31.2,28.5,0001.4,0014.17,0007.82,0006.85
2022-08-03 23:25:00,,0827.9,5.01,0.00,29.4,27.4,00.0,38.2,31.2,28.5,0001.2,0014.10,0007.92,0006.95
2022-08-03 23:26:00,,0828.0,4.99,0.00,29.4,27.5,00.0,38.2,31.2,29.0,0001.5,0014.08,0008.01,0007.05
2022-08-03 23:27:00,,0828.0,5.01,0.00,29.4,27.8,00.0,38.2,31.3,29.4,0001.6,0013.86,0008.09,0007.14
2022-08-03 23:28:00,,0828.0,5.01,0.00,29.4,28.0,00.0,38.2,31.4,29.9,0001.5,0013.90,0008.15,0007.16
2022-08-03 23:29:00,,0828.0,5.00,0.00,29.5,28.2,00.0,38.2,31.5,29.8,0001.8,0013.36,0008.00,0007.08
2022-08-03 23:30:00,,0828.0,5.00,0.00,29.5,28.3,00.0,38.2,31.6,29.7,0001.6,0013.18,0007.80,0006.95
2022-08-03 23:31:00,,0827.9,5.00,0.00,29.6,28.5,00.0,38.3,31.6,29.9,0001.9,0013.50,0007.61,0006.81
2022-08-03 23:32:00,,0828.0,5.00,0.00,29.6,28.2,00.0,38.2,31.5,30.0,0001.5,0013.41,0007.41,0006.67
2022-08-03 23:33:00,,0828.0,5.01,0.00,29.5,27.6,00.0,38.2,31.4,29.9,0001.5,0013.43,0007.25,0006.55
2022-08-03 23:34:00,,0828.0,4.99,0.00,29.5,27.3,00.0,38.2,31.3,29.7,0001.2,0013.59,0007.10,0006.39
2022-08-03 23:35:00,,0828.0,5.01,0.00,29.5,27.3,00.0,38.2,31.2,29.6,0000.9,0013.51,0006.85,0006.18
2022-08-03 23:36:00,,0828.0,5.00,0.00,29.4,27.4,00.0,38.2,31.2,29.5,0000.8,0012.82,0006.56,0005.95
2022-08-03 23:37:00,,0827.9,5.00,0.00,29.4,27.6,00.0,38.2,31.3,29.5,0000.3,0012.31,0006.29,0005.71
2022-08-03 23:38:00,,0828.0,4.99,0.00,29.4,27.8,00.0,38.2,31.3,29.6,-000.0,0012.45,0005.99,0005.47
2022-08-03 23:39:00,,0828.1,4.99,0.00,29.5,28.0,00.0,38.2,31.4,28.8,-000.0,0012.38,0005.72,0005.25
2022-08-03 23:40:00,,0828.0,5.01,0.00,29.5,28.2,00.0,38.2,31.5,28.8,0000.0,0012.09,0005.59,0005.14
2022-08-03 23:41:00,,0828.0,5.00,0.00,29.5,28.4,00.0,38.2,31.6,28.5,0000.0,0011.73,0005.50,0005.07
2022-08-03 23:42:00,,0828.0,5.00,0.00,29.6,28.5,00.0,38.3,31.6,27.9,0000.0,0011.10,0005.39,0005.00
2022-08-03 23:43:00,,0828.0,4.99,0.00,29.6,27.9,00.0,38.2,31.5,28.3,0000.0,0010.68,0005.31,0004.93
2022-08-03 23:44:00,,0828.0,5.01,0.00,29.5,27.4,00.0,38.2,31.3,28.2,0000.0,0010.33,0005.27,0004.88
2022-08-03 23:45:00,,0828.0,5.00,0.00,29.5,27.2,00.0,38.2,31.3,28.7,0000.0,0010.43,0005.23,0004.84
2022-08-03 23:46:00,,0828.0,5.01,0.00,29.4,27.3,00.0,38.2,31.2,29.0,0000.0,0010.77,0005.17,0004.81
2022-08-03 23:47:00,,0828.0,4.99,0.00,29.4,27.5,00.0,38.2,31.2,29.1,0000.0,0010.44,0005.16,0004.80
2022-08-03 23:48:00,,0828.0,4.99,0.00,29.4,27.7,00.0,38.2,31.2,29.2,0000.0,0010.37,0005.15,0004.79
2022-08-03 23:49:00,,0828.0,5.02,0.00,29.4,27.9,00.0,38.2,31.3,29.7,0000.0,0009.67,0005.19,0004.80
2022-08-03 23:50:00,,0828.0,5.00,0.00,29.4,28.0,00.0,38.2,31.4,29.1,0000.0,0009.31,0005.26,0004.84
2022-08-03 23:51:00,,0828.0,5.00,0.00,29.5,28.2,00.0,38.2,31.5,29.5,0000.0,0009.41,0005.34,0004.88
2022-08-03 23:52:00,,0828.1,5.00,0.00,29.5,28.4,00.0,38.2,31.6,28.8,0000.0,0009.62,0005.41,0004.91
2022-08-03 23:53:00,,0828.1,4.99,0.00,29.6,28.5,00.0,38.3,31.6,27.6,0000.0,0009.71,0005.47,0004.95
2022-08-03 23:54:00,,0828.1,5.01,0.00,29.6,28.1,00.0,38.2,31.5,28.0,0000.0,0009.82,0005.53,0004.98
2022-08-03 23:55:00,,0828.1,5.00,0.00,29.5,27.4,00.0,38.2,31.3,28.7,0000.0,0010.44,0005.57,0005.01
2022-08-03 23:56:00,,0828.1,5.00,0.00,29.5,27.1,00.0,38.2,31.2,28.4,0000.0,0010.62,0005.60,0005.03
2022-08-03 23:57:00,,0828.0,4.99,0.00,29.4,27.2,00.0,38.2,31.2,28.0,0000.0,0009.92,0005.63,0005.05
2022-08-03 23:58:00,,0828.0,5.01,0.00,29.4,27.4,00.0,38.2,31.2,27.5,0000.0,0009.92,0005.68,0005.07
2022-08-03 23:59:00,,0828.0,4.99,0.00,29.4,27.6,00.0,38.2,31.2,28.5,0000.0,0009.89,0005.70,0005.09
